Weather History for Kahului, HI

Change the Weather History Date:

Wednesday, May 1, 2013

  Actual Average Record
Temperature  
Mean Temperature 77 °F 75 °F  
Max Temperature 89 °F 83 °F 89 °F (2013)
Min Temperature 64 °F 66 °F 60 °F (1992)
Degree Days  
Heating Degree Days 0 0  
Month to date heating degree days 0 0  
Since 1 July heating degree days 0 0  
Cooling Degree Days 12 10  
Month to date cooling degree days 12 10  
Year to date cooling degree days 995 936  
Growing Degree Days 26 (Base 50)    
Moisture  
Dew Point 65 °F    
Average Humidity 72    
Maximum Humidity 93    
Minimum Humidity 50    
Precipitation  
Precipitation 0.00 in 0.03 in 0.39 in (1981)
Month to date precipitation 0.00 0.03  
Year to date precipitation 6.20 8.79  
Snow  
Snow 0.00 in - - ()
Month to date snowfall 0.0  
Since 1 July snowfall 0.0  
Snow Depth 0.00 in    
Sea Level Pressure  
Sea Level Pressure 30.04 in    
Wind  
Wind Speed 9 mph (ENE)    
Max Wind Speed 24 mph    
Max Gust Speed 29 mph    
Visibility 10 miles    
Events      
T = Trace of Precipitation, MM = Missing Value Source: NWS Daily Summary

Daily Weather History Graph

Daily Weather History Graph

Search for Another Location

Airport:

Trip Planner

Search our weather history database for the weather conditions in past years. The results will help you decide how hot, cold, wet, or windy it might be!

Date:

Astronomy

May. 01, 2013 Rise Set
Actual Time 5:55 AM HST 6:50 PM HST
Civil Twilight 5:31 AM HST 7:13 PM HST
Nautical Twilight 5:04 AM HST 7:41 PM HST
Astronomical Twilight 4:36 AM HST 8:09 PM HST
Moon 12:07 AM HST (5/1) 11:44 AM HST (5/1)
Length of Visible Light 13h 41m
Length of Day
12h 55m
Waning Gibbous, 56% of the Moon is Illuminated
May 1
Waning Gibbous
May 2
Last Quarter
May 9
New
May 17
First Quarter
May 24
Full

Hourly Weather History & Observations

Time (HST) Temp. Heat Index Dew Point Humidity Pressure Visibility Wind Dir Wind Speed Gust Speed Precip Events Conditions
12:54 AM 69.1 °F - 64.9 °F 87% 30.03 in 10.0 mi SE 3.5 mph - N/A   Clear
1:54 AM 68.0 °F - 64.0 °F 87% 30.02 in 10.0 mi SE 4.6 mph - N/A   Clear
2:54 AM 64.9 °F - 63.0 °F 93% 30.01 in 10.0 mi Calm Calm - N/A   Clear
3:54 AM 66.9 °F - 64.0 °F 90% 30.02 in 10.0 mi Calm Calm - N/A   Clear
4:54 AM 66.9 °F - 63.0 °F 87% 30.03 in 10.0 mi Calm Calm - N/A   Clear
5:54 AM 66.0 °F - 62.1 °F 87% 30.04 in 10.0 mi East 5.8 mph - N/A   Clear
6:54 AM 73.0 °F - 64.9 °F 76% 30.06 in 10.0 mi Variable 3.5 mph - N/A   Clear
7:54 AM 78.1 °F - 63.0 °F 60% 30.07 in 10.0 mi NE 3.5 mph - N/A   Clear
8:54 AM 82.0 °F 84.5 °F 66.9 °F 60% 30.07 in 10.0 mi NE 17.3 mph - N/A   Partly Cloudy
9:54 AM 84.0 °F 86.5 °F 66.9 °F 56% 30.07 in 10.0 mi NE 13.8 mph - N/A   Partly Cloudy
10:54 AM 86.0 °F 88.8 °F 66.9 °F 53% 30.06 in 10.0 mi ENE 16.1 mph 23.0 mph N/A   Partly Cloudy
11:54 AM 87.1 °F 89.9 °F 66.9 °F 51% 30.04 in 10.0 mi ENE 19.6 mph 25.3 mph N/A   Scattered Clouds
12:54 PM 87.1 °F 89.9 °F 66.9 °F 51% 30.03 in 10.0 mi ENE 17.3 mph 25.3 mph N/A   Partly Cloudy
1:54 PM 87.1 °F 89.9 °F 66.9 °F 51% 30.01 in 10.0 mi NE 19.6 mph 24.2 mph N/A   Scattered Clouds
2:54 PM 87.1 °F 89.9 °F 66.9 °F 51% 30.01 in 10.0 mi ENE 18.4 mph 27.6 mph N/A   Partly Cloudy
3:54 PM 84.9 °F 87.1 °F 66.0 °F 53% 30.00 in 10.0 mi ENE 20.7 mph 27.6 mph N/A   Partly Cloudy
4:54 PM 84.0 °F 85.8 °F 64.9 °F 53% 30.00 in 10.0 mi NE 20.7 mph 26.5 mph N/A   Partly Cloudy
5:54 PM 82.0 °F 84.5 °F 66.9 °F 60% 30.00 in 10.0 mi NE 16.1 mph 24.2 mph N/A   Partly Cloudy
6:54 PM 78.1 °F - 66.0 °F 66% 30.02 in 10.0 mi East 16.1 mph 25.3 mph N/A   Scattered Clouds
7:54 PM 75.9 °F - 64.9 °F 69% 30.05 in 10.0 mi ENE 12.7 mph - N/A   Partly Cloudy
8:54 PM 75.9 °F - 66.0 °F 71% 30.06 in 10.0 mi NE 12.7 mph 19.6 mph N/A   Clear
9:54 PM 73.9 °F - 69.1 °F 85% 30.08 in 10.0 mi ENE 9.2 mph - N/A   Clear
10:54 PM 73.9 °F - 64.9 °F 73% 30.10 in 10.0 mi East 5.8 mph - N/A   Scattered Clouds
11:54 PM 73.0 °F - 66.9 °F 81% 30.08 in 10.0 mi ENE 6.9 mph - N/A   Partly Cloudy